Le nostre stazioni meteo in Italia

Pubblicità
Il mio iltempo24.it
Antwerpen, Belgio (6450): Temperatura & dewpoint: 17.07.2019 06:00:00 - 23.07.2019 06:00:00 (CEST)Antwerpen, Belgio (6450): velocità del vento & gusts: 17.07.2019 06:00:00 - 23.07.2019 06:00:00 (CEST)Antwerpen, Belgio (6450): direzione del vento: 17.07.2019 06:00:00 - 23.07.2019 06:00:00 (CEST)Antwerpen, Belgio (6450): reduced air pressure: 17.07.2019 06:00:00 - 23.07.2019 06:00:00 (CEST)Antwerpen, Belgio (6450): visibility: 17.07.2019 06:00:00 - 23.07.2019 06:00:00 (CEST)
Data & Tempo tt [°C] td [°C] ff [km/h] ff [kn] fx [km/h] fx [kn] dd ppp [hPa] vv [km]
23.07.2019 06:00:00 15,6 14,5 4 2 4 2 E 1022,1 10
23.07.2019 05:00:00 16,0 14,5 2 1 - - ESE 1022,3 10
23.07.2019 04:00:00 16,3 14,5 2 1 4 2 - 1022,4 10
23.07.2019 03:00:00 17,5 15,2 0 0 4 2 N 1022,5 24
23.07.2019 02:00:00 19,4 15,2 2 1 - - - 1022,6 10
23.07.2019 01:00:00 19,8 15,4 4 2 11 6 NE 1022,7 40
23.07.2019 00:00:00 21,2 15,9 8 4 14 8 NE 1022,9 10
22.07.2019 23:00:00 22,4 15,7 9 5 - - N 1022,8 10
22.07.2019 22:00:00 23,9 16,1 11 6 18 10 NNO 1022,6 10
22.07.2019 21:00:00 26,9 16,5 11 6 18 10 NO 1022,1 30
22.07.2019 20:00:00 28,3 13,3 11 6 - - SO 1021,9 10
22.07.2019 19:00:00 28,5 12,8 11 6 25 14 OSO 1022,1 30
22.07.2019 18:00:00 28,4 12,2 15 8 25 14 O 1022,5 10
22.07.2019 17:00:00 28,0 12,7 11 6 - - O 1023,0 10
22.07.2019 16:00:00 27,9 13,3 11 6 29 16 OSO 1023,3 10
22.07.2019 15:00:00 27,1 13,6 11 6 29 16 O 1023,6 10
22.07.2019 14:00:00 26,2 12,8 14 8 - - OSO 1024,1 30
22.07.2019 13:00:00 25,2 13,3 16 9 32 18 OSO 1024,2 10
22.07.2019 12:00:00 24,0 13,5 18 10 32 18 O 1024,3 10
22.07.2019 11:00:00 22,9 13,0 18 10 - - O 1024,2 10
22.07.2019 10:00:00 20,9 11,9 16 9 29 16 OSO 1024,1 10
22.07.2019 09:00:00 19,7 12,3 13 7 22 12 OSO 1023,9 10
22.07.2019 08:00:00 17,4 11,9 11 6 - - SO 1023,5 10
22.07.2019 07:00:00 16,2 12,2 7 4 14 8 SSO 1023,4 30
22.07.2019 06:00:00 16,3 12,5 8 4 11 6 SO 1023,2 10
22.07.2019 05:00:00 14,1 13,0 8 4 - - SO 1023,2 10
22.07.2019 04:00:00 15,8 13,4 2 1 4 2 - 1023,4 10
22.07.2019 03:00:00 16,1 13,3 2 1 4 2 - 1023,3 10
22.07.2019 02:00:00 15,3 13,5 2 1 - - - 1023,4 10
22.07.2019 01:00:00 15,9 13,0 4 2 7 4 S 1023,8 10
22.07.2019 00:00:00 16,2 13,1 4 2 7 4 - 1023,7 10
21.07.2019 23:00:00 18,8 12,2 4 2 - - - 1023,5 10
21.07.2019 22:00:00 19,3 12,8 5 3 14 8 NNE 1023,1 10
21.07.2019 21:00:00 20,6 12,7 11 6 18 10 N 1022,7 10
21.07.2019 20:00:00 22,5 13,4 11 6 - - NO 1022,8 10
21.07.2019 19:00:00 23,1 12,9 13 7 25 14 NNO 1022,3 10
21.07.2019 18:00:00 23,2 12,2 11 6 25 14 NNO 1022,4 10
21.07.2019 17:00:00 23,4 12,9 13 7 - - N 1022,4 10
21.07.2019 16:00:00 23,8 13,0 13 7 25 14 O 1022,4 10
21.07.2019 15:00:00 22,6 13,5 11 6 25 14 ONO 1022,1 10
21.07.2019 14:00:00 22,8 12,7 11 6 - - OSO 1022,0 10
21.07.2019 13:00:00 23,0 12,7 16 9 25 14 SO 1021,6 10
21.07.2019 12:00:00 21,7 13,6 13 7 22 12 OSO 1021,3 10
21.07.2019 11:00:00 20,5 14,9 9 5 - - O 1021,1 10
21.07.2019 10:00:00 19,5 15,0 9 5 18 10 O 1020,5 10
21.07.2019 09:00:00 18,2 14,5 11 6 18 10 O 1019,9 10
21.07.2019 08:00:00 16,9 14,4 11 6 - - OSO 1019,3 10
21.07.2019 07:00:00 16,0 14,1 11 6 18 10 OSO 1018,7 10
21.07.2019 06:00:00 15,6 13,6 11 6 22 12 OSO 1017,9 10
21.07.2019 05:00:00 15,9 13,5 11 6 - - OSO 1017,2 10
21.07.2019 04:00:00 16,4 13,5 13 7 22 12 O 1016,7 10
21.07.2019 03:00:00 17,0 13,1 11 6 25 14 OSO 1016,4 10
21.07.2019 02:00:00 17,8 13,2 9 5 - - SO 1015,8 10
21.07.2019 01:00:00 18,6 13,1 13 7 25 14 OSO 1015,6 10
21.07.2019 00:00:00 19,4 12,9 15 8 29 16 OSO 1015,0 10
20.07.2019 23:00:00 20,5 13,3 15 8 - - OSO 1014,5 10
20.07.2019 22:00:00 21,2 13,4 18 10 36 19 O 1013,6 10
20.07.2019 21:00:00 22,4 12,8 24 13 47 25 OSO 1012,7 10
20.07.2019 20:00:00 24,2 12,4 26 14 - - OSO 1011,8 10
20.07.2019 19:00:00 25,7 14,2 28 15 47 25 O 1010,9 10
20.07.2019 18:00:00 25,7 14,0 22 12 47 25 OSO 1010,6 10
20.07.2019 17:00:00 25,6 16,4 16 9 - - SSO 1010,4 10
20.07.2019 16:00:00 25,3 15,2 21 11 29 16 SO 1010,4 10
20.07.2019 15:00:00 24,5 14,9 11 6 29 16 OSO 1009,8 10
20.07.2019 14:00:00 26,5 15,5 11 6 - - SO 1010,0 20
20.07.2019 13:00:00 23,6 14,8 16 9 25 14 SSE 1010,0 10
20.07.2019 12:00:00 21,2 15,9 11 6 14 8 ESE 1010,0 10
20.07.2019 11:00:00 20,1 15,8 5 3 - - SE 1010,3 10
20.07.2019 10:00:00 20,1 15,2 5 3 18 10 SE 1010,3 10
20.07.2019 09:00:00 20,0 14,5 11 6 36 19 O 1010,5 10
20.07.2019 08:00:00 20,9 13,8 11 6 - - S 1009,5 10
20.07.2019 07:00:00 19,8 14,2 9 5 18 10 S 1009,5 10
20.07.2019 06:00:00 18,6 14,0 11 6 18 10 SSE 1009,6 10
20.07.2019 05:00:00 17,9 14,3 9 5 - - SSE 1010,0 10
20.07.2019 04:00:00 18,2 13,9 9 5 14 8 SE 1010,5 10
20.07.2019 03:00:00 19,2 14,3 11 6 14 8 SE 1010,9 10
20.07.2019 02:00:00 20,0 14,1 11 6 - - SSE 1011,3 10
20.07.2019 01:00:00 20,3 14,0 11 6 18 10 SSE 1011,9 10
20.07.2019 00:00:00 20,7 13,9 9 5 11 6 SSE 1012,2 10
19.07.2019 23:00:00 19,5 14,6 8 4 - - SE 1012,5 10
19.07.2019 22:00:00 20,4 14,2 5 3 11 6 SE 1012,7 10
19.07.2019 21:00:00 23,9 11,6 8 4 14 8 S 1012,7 10
19.07.2019 20:00:00 24,3 11,6 11 6 - - SSO 1013,1 10
19.07.2019 19:00:00 24,0 10,9 9 5 25 14 SO 1013,3 10
19.07.2019 18:00:00 24,0 10,2 16 9 29 16 SSO 1013,6 10
19.07.2019 17:00:00 23,8 11,2 15 8 - - SSO 1013,8 10
19.07.2019 16:00:00 23,8 10,7 18 10 29 16 SO 1014,1 10
19.07.2019 15:00:00 23,6 11,8 15 8 25 14 OSO 1014,4 10
19.07.2019 14:00:00 22,9 11,4 16 9 - - SO 1014,4 10
19.07.2019 13:00:00 22,3 12,9 15 8 25 14 SSO 1014,2 10
19.07.2019 12:00:00 22,0 13,3 11 6 25 14 SSO 1014,3 10
19.07.2019 11:00:00 20,4 13,7 15 8 - - SO 1014,6 10
19.07.2019 10:00:00 19,0 13,9 11 6 18 10 SO 1014,6 10
19.07.2019 09:00:00 17,7 13,5 11 6 18 10 SO 1014,2 10
19.07.2019 08:00:00 16,6 12,8 11 6 - - SO 1013,8 10
19.07.2019 07:00:00 15,8 13,0 7 4 14 8 SO 1013,6 20
19.07.2019 06:00:00 15,9 12,6 9 5 14 8 SO 1013,4 10
19.07.2019 05:00:00 16,3 12,8 11 6 - - OSO 1013,4 40
19.07.2019 04:00:00 17,2 13,6 8 4 14 8 OSO 1013,4 10
19.07.2019 03:00:00 17,5 14,0 5 3 14 8 OSO 1013,2 10
19.07.2019 02:00:00 18,2 14,1 8 4 - - SO 1013,1 10
19.07.2019 01:00:00 18,7 14,3 8 4 11 6 SO 1012,9 10
19.07.2019 00:00:00 18,9 14,3 8 4 11 6 SSO 1012,8 10
18.07.2019 23:00:00 19,4 14,5 9 5 - - SO 1012,7 10
18.07.2019 22:00:00 19,8 14,5 11 6 22 12 OSO 1012,6 10
18.07.2019 21:00:00 20,0 14,2 13 7 32 18 OSO 1012,2 10
18.07.2019 20:00:00 20,1 14,4 16 9 - - OSO 1012,1 10
18.07.2019 19:00:00 19,9 14,5 16 9 32 18 O 1012,0 10
18.07.2019 18:00:00 21,0 14,2 22 12 32 18 O 1012,0 15
18.07.2019 17:00:00 22,6 13,6 18 10 - - SO 1011,6 10
18.07.2019 16:00:00 22,1 13,3 11 6 25 14 SO 1011,7 15
18.07.2019 15:00:00 22,3 13,5 13 7 25 14 SO 1011,7 10
18.07.2019 14:00:00 21,8 13,6 11 6 - - SO 1011,7 15
18.07.2019 13:00:00 21,4 12,8 15 8 29 16 OSO 1011,8 10
18.07.2019 12:00:00 19,9 12,3 18 10 29 16 OSO 1012,0 10
18.07.2019 11:00:00 19,9 12,1 16 9 - - SO 1011,7 10
18.07.2019 10:00:00 19,2 12,3 11 6 22 12 SO 1011,6 10
18.07.2019 09:00:00 18,0 11,9 13 7 22 12 SO 1011,6 10
18.07.2019 08:00:00 17,5 10,1 13 7 - - OSO 1011,6 10
18.07.2019 07:00:00 16,7 11,9 11 6 22 12 O 1011,3 10
18.07.2019 06:00:00 17,6 12,3 5 3 11 6 SO 1011,4 10
18.07.2019 05:00:00 16,2 12,8 4 2 - - SE 1011,5 10
18.07.2019 04:00:00 15,8 12,5 4 2 11 6 - 1011,8 10
18.07.2019 03:00:00 16,1 12,7 5 3 7 4 SE 1012,1 10
18.07.2019 02:00:00 16,5 12,8 5 3 - - SE 1012,5 10
18.07.2019 01:00:00 17,5 12,9 5 3 11 6 SE 1012,6 10
18.07.2019 00:00:00 17,9 13,0 8 4 7 4 ESE 1012,7 10
17.07.2019 23:00:00 18,8 13,8 5 3 - - ESE 1013,0 10
17.07.2019 22:00:00 20,5 13,4 5 3 11 6 ESE 1013,1 10
17.07.2019 21:00:00 21,5 13,9 8 4 11 6 E 1013,1 10
17.07.2019 20:00:00 22,9 13,6 8 4 - - ESE 1013,2 10
17.07.2019 19:00:00 23,8 11,4 8 4 14 8 ESE 1013,5 10
17.07.2019 18:00:00 24,2 12,1 7 4 18 10 SE 1013,8 25
17.07.2019 17:00:00 25,0 12,0 8 4 - - S 1014,4 10
17.07.2019 16:00:00 24,6 12,2 5 3 18 10 - 1014,9 10
17.07.2019 15:00:00 23,3 12,2 8 4 22 12 SSE 1015,2 10
17.07.2019 14:00:00 23,0 12,5 9 5 - - SE 1015,6 10
17.07.2019 13:00:00 22,4 12,6 5 3 14 8 - 1016,0 10
17.07.2019 12:00:00 21,3 12,3 2 1 11 6 - 1016,4 10
17.07.2019 11:00:00 19,6 10,8 4 2 - - - 1016,5 10
17.07.2019 10:00:00 18,7 12,6 2 1 7 4 - 1016,8 10
17.07.2019 09:00:00 16,8 14,9 2 1 4 2 - 1016,8 6
17.07.2019 08:00:00 14,8 14,3 2 1 - - NE 1016,7 3,5
17.07.2019 07:00:00 11,3 11,2 2 1 4 2 - 1016,8 2,9
17.07.2019 06:00:00 10,0 9,7 2 1 4 2 SSE 1016,9 0,5

tt = Temperatura
td = dewpoint
ff = velocità del vento
fx = gusts
dd = direzione del vento
ppp = reduced air pressure
vv = visibility

Stazioni seguenti

WeatherPro
AMSI
MeteoEarth